Wetbulb
51.02 48.55 48.03 47.28 48.30 48.35 46.83 46.20 43.52 38.34 37.65 40.23 38.33 41.28 40.68 40.28 39.37 38.98 38.21 38.19 38.40 39.29 39.97 40.86 41.30 42.04 42.90 43.23 43.08 43.44 43.48 43.99 43.92 44.39 45.05 45.22 45.68 46.12
47.16 47.17 45.34 45.76 46.18 48.14 48.33 47.59 46.94 43.52 39.85 40.56 39.58 39.95 39.94 39.73 38.35 38.55 38.10 36.68 37.98 38.19 38.65 39.34 40.62 41.43 41.73 41.57 42.08 42.14 42.37 42.75 43.02 43.54 44.31 44.24 44.64 44.98
43.66 44.36 42.71 44.09 44.05 45.44 46.81 46.08 44.72 44.98 39.75 37.81 39.90 39.65 38.43 37.93 37.35 37.49 37.19 36.50 36.25 37.35 37.69 38.67 39.78 39.83 39.86 40.27 40.70 40.79 41.00 41.23 41.46 41.86 42.26 42.65 43.20 43.89
40.83 40.71 40.10 41.21 41.52 42.97 43.50 42.74 42.53 42.27 40.17 34.72 36.98 36.33 36.85 37.41 36.70 35.00 35.58 35.51 34.58 36.42 37.04 37.77 38.38 38.06 38.58 39.11 39.05 39.07 39.23 38.74 38.76 39.20 39.88 40.85 41.98 42.75
40.14 39.13 39.13 39.63 39.75 39.80 40.69 40.35 39.26 39.74 39.60 36.32 34.50 36.14 35.46 35.55 34.63 33.77 33.43 33.33 35.00 36.70 36.66 36.51 37.21 37.71 37.80 37.82 37.91 37.81 37.11 36.55 37.42 38.14 38.98 39.82 40.50 41.30
38.71 39.13 40.20 39.32 39.19 38.80 38.45 38.10 37.96 37.22 37.11 35.08 33.95 33.44 33.77 33.50 32.25 30.85 30.83 32.95 32.86 35.23 35.01 35.66 36.67 36.78 36.92 37.13 36.33 35.71 35.21 36.25 37.07 37.88 38.69 38.81 39.34 40.29
37.07 37.74 38.28 39.25 40.45 39.93 37.87 37.15 36.44 35.34 34.60 33.28 31.83 31.87 31.26 30.81 30.10 31.09 30.26 31.24 32.26 32.41 31.80 31.87 31.37 32.18 33.00 34.90 35.11 35.15 35.59 36.07 36.38 37.52 37.27 37.02 37.01 37.41
35.45 36.22 37.78 38.74 38.89 39.56 39.44 39.70 39.04 35.12 33.79 32.79 31.47 30.12 29.45 30.04 30.25 30.34 30.23 28.39 26.90 32.59 29.16 28.09 30.54 29.74 31.19 31.71 35.03 35.23 35.34 35.10 36.01 36.04 35.70 36.21 36.32 36.27
37.22 37.07 36.78 38.00 38.06 36.89 37.76 37.58 37.21 37.51 37.00 33.74 31.00 30.29 29.56 30.42 30.61 30.13 29.64 28.81 27.77 29.51 28.78 26.59 29.27 28.20 30.57 31.81 34.10 34.88 34.24 34.47 35.38 36.46 36.48 35.79 35.42 35.62
37.94 37.48 37.32 37.20 36.89 35.10 33.53 32.80 32.70 33.02 33.68 34.01 32.53 31.92 32.24 32.42 31.28 30.62 29.57 28.77 29.12 29.83 28.90 23.89 28.05 27.23 28.98 29.50 33.57 33.68 33.11 34.14 34.37 34.30 34.49 34.68 34.60 34.66
37.19 36.49 35.85 35.29 36.95 36.35 32.92 31.82 31.96 32.23 35.07 34.87 34.03 33.17 32.33 31.69 31.65 30.01 28.17 25.97 25.24 26.05 27.82 25.13 26.21 25.83 26.80 27.05 28.50 32.83 32.87 33.09 33.37 33.73 33.98 34.02 33.97 33.95
35.28 36.42 37.65 36.25 36.93 36.29 32.42 31.22 29.88 30.62 30.65 30.24 29.86 30.26 30.35 29.96 30.18 29.59 28.27 25.33 25.30 23.93 26.94 25.07 25.03 24.53 21.38 25.40 26.41 27.20 27.55 31.10 32.59 33.06 33.09 33.33 33.46 29.51
34.43 35.42 37.16 37.78 36.54 35.89 34.67 32.43 31.47 31.93 30.70 29.40 29.23 28.77 28.74 28.77 28.84 29.27 28.90 27.62 25.19 25.26 28.75 27.30 24.12 24.28 23.46 22.43 24.23 25.61 26.27 26.63 26.69 27.62 31.59 32.08 32.36 31.92
33.81 35.60 36.49 36.73 36.60 34.97 34.34 34.99 33.79 31.73 29.51 28.60 27.72 27.40 27.32 27.96 28.41 28.85 28.91 28.88 28.80 27.26 28.27 27.63 23.82 23.54 21.96 20.46 20.30 24.09 24.66 25.28 25.67 25.91 26.67 29.92 31.54 31.74
35.62 36.48 36.15 36.28 35.22 34.32 35.58 34.38 32.10 29.27 28.50 27.35 27.03 27.58 28.13 28.70 28.39 28.27 28.90 28.43 27.81 27.74 28.03 27.52 25.59 24.76 24.56 22.51 21.59 22.04 22.40 23.65 25.29 24.78 25.28 25.75 25.89 26.38
36.02 34.62 34.28 33.24 32.62 32.67 31.99 32.34 29.42 29.02 28.39 28.46 27.67 27.82 28.32 28.32 27.09 27.44 25.36 25.70 24.31 24.50 27.37 27.63 27.51 26.62 23.35 23.49 22.87 21.15 22.62 20.56 23.42 24.56 24.89 25.28 25.85 26.33
33.65 32.13 30.38 29.55 28.80 28.60 28.38 28.61 28.77 28.61 28.16 28.38 27.73 27.23 27.05 26.77 26.37 26.31 24.76 23.82 22.88 22.61 22.55 24.39 25.55 27.34 26.55 24.64 21.07 21.29 21.06 22.09 23.62 23.76 23.98 22.85 24.20 25.22
32.18 29.89 28.76 28.22 27.82 27.74 27.48 27.63 28.12 28.47 28.15 28.02 27.34 27.04 25.79 24.55 24.32 25.79 25.92 24.65 22.79 22.43 21.46 22.14 22.85 22.85 22.32 22.91 26.89 21.66 22.41 22.23 23.39 23.68 23.53 21.13 21.35 24.12
30.29 29.17 28.34 28.12 28.07 27.92 27.99 27.78 27.48 27.72 27.93 27.05 26.41 24.82 25.33 25.47 24.61 23.44 23.22 23.40 22.32 22.31 21.89 22.20 21.15 20.23 17.90 15.37 20.32 27.60 20.61 21.21 21.00 21.54 21.82 21.39 20.99 22.52
30.89 28.64 28.44 28.52 28.38 28.31 28.24 27.97 27.91 28.31 27.49 27.32 26.12 25.75 27.19 25.69 23.67 22.43 22.46 21.79 21.12 20.98 20.44 20.71 20.39 19.08 19.16 18.20 19.01 21.67 26.38 20.76 19.83 20.45 21.46 23.16 24.30 27.97
31.97 29.59 29.14 28.86 28.88 29.20 29.53 30.37 29.87 28.55 28.01 27.43 27.19 26.78 26.85 24.85 22.85 21.87 21.47 23.27 23.10 21.24 19.02 19.07 20.07 26.65 23.02 21.67 18.00 17.92 20.96 26.66 25.78 22.72 22.87 22.20 21.33 21.66
31.39 30.02 29.58 29.51 29.74 30.75 30.63 29.77 29.21 28.62 28.19 27.49 26.87 27.64 27.18 25.92 23.07 21.81 21.41 20.55 20.18 20.05 19.85 20.79 20.98 21.49 21.42 19.97 17.94 18.30 19.32 22.05 25.84 27.60 28.34 27.59 23.31 20.08
30.19 29.91 29.94 30.04 30.81 30.39 29.57 29.58 29.28 29.08 28.57 27.77 26.07 25.71 26.67 25.17 24.41 23.72 22.77 21.75 20.60 20.13 20.15 19.75 20.85 21.30 19.93 19.37 20.19 19.10 18.91 20.04 22.31 22.52 23.94 29.33 30.00 30.35
MSLP
1014.97 1015.55 1016.19 1016.39 1016.67 1016.79 1017.51 1018.18 1018.46 1019.99 1021.08 1022.06 1022.85 1023.23 1023.23 1023.71 1024.09 1024.34 1024.49 1024.96 1025.17 1025.13 1024.75 1024.76 1024.52 1024.46 1024.58 1024.32 1024.36 1024.17 1024.00 1023.87 1023.35 1022.78 1022.62 1022.52 1022.27 1021.92
1015.20 1015.71 1016.33 1016.86 1016.73 1017.22 1017.35 1017.85 1018.02 1018.78 1020.14 1021.20 1022.23 1022.97 1023.46 1023.85 1024.22 1024.21 1024.67 1025.02 1025.04 1025.07 1024.80 1024.25 1024.57 1024.42 1024.38 1024.26 1024.11 1024.14 1024.16 1023.80 1023.16 1022.67 1022.37 1022.29 1022.21 1021.84
1015.48 1016.22 1016.71 1017.06 1017.21 1017.18 1017.55 1018.07 1018.48 1018.68 1019.98 1021.70 1022.36 1023.10 1023.34 1023.58 1024.44 1024.46 1024.75 1024.98 1024.68 1025.01 1024.45 1024.38 1024.47 1024.30 1024.13 1024.01 1023.99 1024.16 1023.85 1023.51 1023.16 1022.69 1022.38 1022.26 1021.98 1021.62
1015.70 1016.36 1016.85 1017.56 1017.27 1017.61 1017.99 1018.45 1018.94 1019.19 1019.73 1021.43 1022.52 1023.16 1023.53 1023.46 1024.58 1024.77 1024.62 1024.75 1024.92 1024.63 1024.29 1024.47 1024.37 1024.20 1023.82 1023.94 1024.03 1023.83 1023.62 1023.41 1023.18 1022.79 1022.30 1022.06 1021.74 1021.31
1015.72 1016.46 1016.94 1017.10 1017.40 1017.82 1018.35 1018.93 1019.58 1019.56 1019.94 1020.93 1022.28 1023.15 1023.70 1024.19 1025.17 1024.75 1024.29 1024.58 1024.85 1024.33 1024.04 1024.51 1024.18 1023.92 1023.78 1023.80 1023.70 1023.58 1023.66 1023.46 1023.02 1022.46 1021.95 1021.51 1021.36 1020.97
1015.85 1016.25 1016.62 1017.05 1017.72 1018.12 1018.58 1019.34 1020.08 1019.92 1020.33 1021.26 1022.46 1023.37 1023.71 1024.66 1025.21 1024.91 1023.99 1024.25 1024.84 1024.24 1024.27 1024.07 1023.85 1023.57 1023.68 1023.41 1023.42 1023.29 1023.29 1022.93 1022.55 1021.95 1021.54 1021.21 1021.10 1020.77
1016.51 1016.82 1017.16 1017.90 1018.39 1018.88 1018.96 1019.38 1020.12 1020.45 1020.92 1021.65 1022.46 1023.22 1023.70 1024.32 1024.62 1024.97 1024.29 1024.81 1024.74 1024.50 1024.25 1024.06 1023.83 1023.54 1023.52 1023.28 1023.04 1022.61 1022.68 1022.44 1022.04 1021.75 1021.50 1021.33 1021.14 1020.70
1016.95 1017.41 1018.23 1018.95 1019.38 1019.61 1020.03 1020.13 1020.27 1020.76 1020.88 1021.54 1021.94 1022.75 1023.77 1023.92 1024.42 1024.77 1025.04 1024.99 1024.79 1024.65 1024.42 1023.93 1023.45 1023.54 1023.43 1023.22 1022.52 1022.31 1022.05 1022.11 1021.66 1021.59 1021.31 1021.22 1020.80 1020.34
1017.36 1018.00 1018.80 1019.51 1019.77 1020.34 1020.95 1021.14 1021.14 1021.32 1021.58 1021.57 1022.37 1023.14 1023.61 1024.28 1024.70 1024.77 1025.03 1025.15 1025.31 1024.86 1024.27 1023.59 1023.76 1023.65 1023.10 1022.82 1022.39 1021.86 1021.73 1021.86 1021.52 1021.15 1021.07 1020.74 1020.36 1019.77
1018.05 1018.75 1019.25 1019.87 1020.40 1020.75 1021.18 1021.79 1022.19 1022.46 1022.73 1022.94 1023.17 1023.73 1024.09 1024.34 1024.56 1024.98 1025.29 1024.87 1024.81 1024.68 1024.33 1024.00 1023.79 1023.58 1023.11 1022.53 1021.80 1021.52 1021.65 1021.47 1021.34 1020.96 1020.58 1020.12 1019.66 1019.15
1018.90 1019.45 1019.98 1020.60 1021.02 1021.39 1021.78 1022.41 1022.92 1023.45 1023.88 1024.07 1024.05 1024.43 1024.47 1024.67 1024.87 1025.14 1024.81 1024.77 1025.45 1024.85 1024.36 1024.34 1024.01 1023.60 1022.71 1021.83 1021.47 1021.49 1021.49 1021.16 1020.88 1020.41 1019.86 1019.38 1018.90 1018.47
1019.84 1020.37 1020.89 1021.21 1021.51 1021.92 1022.44 1022.77 1023.34 1023.96 1023.98 1024.28 1024.47 1024.62 1024.70 1024.89 1024.99 1024.94 1025.14 1025.55 1025.52 1025.07 1024.38 1024.59 1024.50 1024.16 1023.10 1021.82 1021.65 1021.64 1021.10 1020.84 1020.33 1019.81 1019.43 1018.93 1018.48 1018.19
1020.29 1020.82 1021.31 1021.65 1022.16 1022.43 1022.57 1022.95 1023.26 1023.63 1023.98 1024.11 1024.29 1024.61 1024.72 1024.79 1024.76 1024.93 1025.08 1025.33 1025.35 1025.00 1024.57 1024.77 1024.57 1024.20 1024.06 1022.90 1021.86 1021.64 1021.33 1020.69 1020.40 1019.94 1019.28 1018.77 1018.11 1017.74
1020.55 1021.14 1021.55 1021.96 1022.37 1022.99 1023.31 1023.33 1023.27 1023.55 1023.87 1024.07 1024.44 1024.64 1024.77 1024.76 1024.82 1024.84 1024.95 1025.03 1025.04 1024.99 1024.65 1024.71 1024.31 1024.18 1023.81 1023.22 1022.61 1021.49 1021.22 1020.96 1020.26 1019.47 1018.96 1018.26 1017.71 1017.32
1021.04 1021.53 1021.92 1022.34 1022.85 1023.02 1023.05 1023.21 1023.50 1023.79 1024.10 1024.44 1024.59 1024.67 1024.63 1024.66 1024.69 1024.69 1024.56 1024.55 1024.61 1024.44 1024.19 1023.99 1023.93 1023.74 1023.66 1023.24 1022.45 1021.76 1020.88 1020.08 1019.50 1019.02 1018.39 1017.84 1017.27 1016.82
1021.66 1022.04 1022.44 1022.89 1023.16 1023.17 1023.34 1023.55 1023.89 1024.07 1024.20 1024.36 1024.47 1024.39 1024.29 1024.40 1024.52 1024.63 1024.60 1024.53 1024.42 1024.04 1023.77 1023.38 1023.26 1023.34 1023.22 1022.82 1022.24 1021.25 1020.78 1020.43 1019.17 1018.61 1017.92 1017.23 1016.60 1016.10
1022.14 1022.52 1022.85 1023.07 1023.22 1023.43 1023.61 1023.74 1023.90 1024.01 1024.13 1024.17 1024.18 1024.20 1024.28 1024.42 1024.51 1024.52 1024.45 1024.49 1024.33 1023.70 1023.24 1023.02 1022.86 1022.59 1022.23 1021.92 1021.28 1020.63 1020.01 1019.36 1018.73 1017.94 1017.27 1016.57 1015.93 1015.27
1022.21 1022.55 1022.86 1023.02 1023.25 1023.47 1023.58 1023.61 1023.63 1023.70 1023.86 1024.00 1024.15 1024.28 1024.46 1024.61 1024.56 1024.40 1024.28 1024.15 1023.91 1023.53 1023.11 1022.69 1022.47 1022.09 1021.46 1020.78 1020.10 1019.48 1019.08 1018.49 1017.84 1017.40 1016.84 1016.04 1015.10 1014.48
1022.20 1022.52 1022.71 1022.92 1023.08 1023.21 1023.37 1023.49 1023.62 1023.63 1023.78 1024.01 1024.12 1024.22 1024.29 1024.35 1024.35 1024.21 1024.00 1023.75 1023.39 1023.17 1022.81 1022.43 1022.27 1021.82 1020.86 1019.88 1019.15 1018.81 1018.41 1017.89 1017.28 1016.74 1016.31 1015.65 1014.61 1013.77
1022.12 1022.36 1022.53 1022.69 1022.85 1023.02 1023.09 1023.22 1023.32 1023.48 1023.63 1023.75 1023.81 1023.89 1023.90 1023.97 1023.97 1023.88 1023.71 1023.40 1023.11 1022.70 1022.21 1021.83 1021.50 1021.07 1020.58 1019.67 1018.69 1018.08 1018.21 1017.43 1016.88 1016.01 1015.14 1014.46 1013.75 1012.85
1021.96 1022.20 1022.22 1022.33 1022.46 1022.60 1022.73 1022.83 1022.81 1022.90 1023.07 1023.20 1023.31 1023.43 1023.48 1023.69 1023.69 1023.63 1023.31 1022.91 1022.48 1022.05 1021.54 1021.02 1020.68 1020.09 1019.88 1019.54 1018.50 1017.37 1016.83 1016.50 1015.90 1015.19 1014.21 1013.46 1012.47 1011.69
1021.64 1021.80 1021.86 1022.00 1022.09 1022.17 1022.18 1022.24 1022.41 1022.54 1022.60 1022.78 1022.90 1022.90 1022.91 1022.94 1022.96 1022.88 1022.64 1022.28 1021.92 1021.48 1020.91 1020.54 1020.31 1019.94 1019.49 1018.93 1017.80 1016.79 1015.82 1014.94 1014.36 1013.86 1013.15 1012.51 1011.66 1010.18
1021.35 1021.49 1021.57 1021.58 1021.61 1021.65 1021.64 1021.76 1021.90 1021.98 1022.06 1022.15 1022.23 1022.24 1022.24 1022.16 1022.11 1021.93 1021.74 1021.47 1021.19 1020.77 1020.31 1019.66 1019.34 1019.05 1018.59 1018.11 1017.18 1016.04 1015.12 1014.06 1013.12 1012.26 1011.41 1010.70 1010.00 1009.30
Wind_Speed
5 6 3 1 3 4 7 7 6 5 6 7 3 7 3 4 6 4 2 3 3 5 5 8 8 9 12 10 10 13 15 16 15 15 15 16 18 18
5 6 4 2 4 3 4 5 3 4 4 3 3 5 5 4 4 2 2 2 5 5 6 6 10 11 10 9 11 15 17 17 16 16 16 17 19 19
6 6 6 3 2 4 3 3 1 3 6 2 3 5 6 4 4 2 1 3 2 6 6 8 9 7 7 11 14 16 16 15 16 17 17 18 19 20
9 8 7 4 5 4 4 4 3 3 4 9 6 3 4 3 2 1 1 3 3 6 7 10 7 6 11 13 14 14 13 14 16 17 17 18 20 21
9 8 8 7 6 5 5 4 4 3 4 8 6 4 3 3 3 2 2 1 4 6 7 7 7 11 12 13 13 12 12 15 16 17 18 19 20 20
7 8 8 7 8 8 7 7 5 6 8 8 7 4 3 3 2 2 2 0 3 4 3 5 10 11 12 12 10 10 12 16 18 18 17 17 17 19
9 10 11 11 12 8 5 7 7 6 7 7 6 4 4 3 2 2 3 3 5 1 3 4 3 4 4 7 8 9 15 17 17 13 13 16 18 21
12 13 12 14 15 18 17 16 8 6 7 6 5 5 4 4 2 1 2 3 3 2 4 5 3 4 4 4 12 15 16 15 14 11 15 19 22 23
12 11 10 9 13 12 17 19 18 18 11 6 8 5 5 3 0 2 2 2 4 5 5 4 3 4 5 7 15 15 11 13 15 16 19 23 23 23
11 10 10 10 9 9 10 10 9 9 7 6 7 5 4 3 2 1 2 3 5 5 1 3 3 6 7 6 14 8 8 14 19 18 19 21 22 23
10 10 10 10 13 13 9 9 8 8 9 11 11 8 6 4 2 1 2 4 4 3 2 2 3 8 8 6 3 10 18 18 20 20 21 22 23 22
9 10 14 10 13 11 8 7 7 6 6 5 4 5 4 3 1 1 1 2 3 4 3 3 4 4 6 4 4 7 7 19 22 22 24 22 21 8
7 7 6 13 11 10 8 4 7 6 6 3 3 2 2 2 0 1 1 2 3 5 5 2 3 4 3 6 6 7 9 8 9 14 20 21 19 17
7 5 7 11 11 10 7 13 12 7 3 3 1 0 0 1 1 1 3 3 4 8 7 6 4 4 6 9 9 8 8 9 9 10 9 13 18 21
6 9 13 11 11 7 10 9 6 2 2 1 1 1 1 1 1 3 4 4 6 6 7 6 5 6 6 9 11 10 13 8 10 7 6 9 8 8
12 8 8 7 7 6 4 4 2 2 1 1 1 1 1 0 1 1 2 3 5 5 5 6 7 8 8 9 9 11 9 8 8 9 8 10 9 9
8 4 4 3 3 2 2 3 3 3 2 1 1 1 1 1 2 1 2 3 6 7 8 4 5 8 9 11 11 11 10 10 9 10 11 10 10 10
3 3 3 3 3 4 4 3 3 2 1 1 1 1 2 2 3 4 4 5 7 8 8 6 6 7 8 9 19 10 8 9 9 9 10 12 12 10
2 3 3 3 2 2 2 2 2 2 2 1 2 2 2 4 7 7 7 6 7 7 7 6 6 8 9 11 5 11 7 9 11 10 9 10 13 12
2 2 2 3 2 2 3 2 2 3 3 3 3 3 4 4 5 6 7 7 8 8 9 7 6 5 8 10 11 10 17 12 9 11 11 10 13 25
3 3 2 2 3 3 3 3 3 3 3 3 4 4 4 4 6 8 8 14 14 8 9 9 6 16 7 8 9 11 8 18 18 14 14 12 13 12
3 3 3 3 3 4 4 3 3 4 4 4 6 6 5 5 6 7 7 8 8 8 9 8 7 7 7 9 12 16 13 11 14 24 28 25 12 12
3 3 3 4 4 3 3 3 4 5 5 6 5 4 6 6 6 6 7 8 9 8 8 9 8 7 9 10 16 13 19 16 12 12 12 23 26 27
Wind_Direction
133 132 111 113 157 150 145 171 141 156 181 176 164 192 154 132 128 183 90 93 311 312 326 319 315 309 306 304 303 315 317 307 309 311 307 312 312 310
126 117 101 148 126 113 133 194 141 138 137 106 142 168 155 177 133 167 111 300 260 290 302 325 307 300 299 300 305 315 306 305 310 309 311 313 308 303
108 132 134 118 151 120 92 91 148 118 118 76 119 152 162 142 143 193 196 282 288 275 312 315 299 291 301 314 306 301 304 309 313 313 310 307 302 299
129 135 108 169 115 121 117 141 123 97 123 135 129 138 151 97 67 264 299 306 306 295 306 308 286 288 321 302 294 299 302 312 312 310 307 302 300 299
130 130 144 130 118 108 108 111 94 116 108 131 125 137 86 100 223 213 218 256 277 295 313 273 272 301 303 297 298 299 310 314 311 307 303 301 299 297
108 113 118 105 121 120 123 120 125 110 103 109 118 127 115 111 297 305 31 3 304 297 243 269 298 308 300 292 296 290 303 318 316 308 305 309 307 298
92 88 72 75 82 98 111 114 124 113 119 119 122 128 113 153 63 325 360 332 284 67 324 295 314 292 283 299 288 314 316 317 309 315 325 321 316 311
105 94 93 92 88 91 83 73 83 113 116 126 114 110 118 94 67 7 315 1 319 145 335 306 290 311 298 290 318 319 320 321 301 298 308 314 313 308
112 114 112 110 103 98 89 86 79 72 74 89 109 101 98 94 112 337 8 329 289 305 314 304 303 305 312 324 313 319 333 321 308 303 301 310 307 305
110 112 111 104 104 105 98 89 78 68 62 69 88 91 96 98 86 27 309 273 294 278 129 278 343 300 310 301 312 331 324 316 314 309 305 306 306 306
104 99 102 104 112 106 100 97 95 93 86 90 94 97 88 79 69 286 340 16 298 290 356 332 318 313 304 300 337 341 325 316 319 313 312 311 310 306
100 105 112 115 117 121 121 120 114 149 140 143 128 111 86 95 50 345 341 272 288 296 113 339 321 334 321 296 340 320 320 319 313 316 313 307 304 298
113 113 124 122 114 111 97 109 134 124 112 110 97 118 157 189 178 219 287 263 271 274 300 340 281 308 259 303 308 309 303 303 314 302 297 304 301 302
115 114 115 117 121 130 137 129 114 102 94 79 104 216 86 290 266 340 300 278 273 277 290 286 273 291 288 294 291 308 296 293 282 291 294 291 299 302
108 124 126 134 128 120 124 114 107 105 121 176 213 219 195 233 330 277 267 273 266 253 268 268 264 279 277 275 283 290 298 297 287 274 298 292 293 296
126 123 125 124 126 127 124 139 158 166 191 208 232 291 350 223 290 269 266 291 295 279 275 260 259 265 266 264 273 281 283 285 294 289 292 294 292 285
125 115 121 135 138 145 163 183 193 194 200 231 334 327 309 271 257 270 274 278 276 296 297 275 261 260 260 263 267 267 277 276 278 289 294 294 292 289
131 141 154 175 183 191 192 195 199 214 204 177 240 269 277 271 275 279 282 274 276 281 283 288 293 290 282 260 245 264 271 288 288 286 292 293 289 289
137 179 178 183 188 186 170 179 211 194 149 201 218 238 266 287 290 283 277 275 278 278 278 281 276 278 290 292 262 271 295 296 293 287 277 276 286 289
204 184 188 182 185 184 191 201 202 191 195 215 216 228 247 260 281 280 279 274 276 276 275 267 263 263 270 288 296 292 285 283 283 285 286 281 276 282
203 209 195 188 195 197 205 207 203 205 211 216 228 238 252 246 257 270 274 284 287 289 285 285 274 289 302 295 286 287 281 272 277 282 286 283 291 289
214 202 204 202 207 210 207 199 205 221 228 229 236 239 247 236 242 262 271 278 281 284 285 291 293 287 280 280 286 292 292 282 277 280 276 272 282 284
212 207 211 213 210 211 200 214 227 238 230 229 227 240 256 262 257 262 270 280 285 284 283 293 292 279 271 272 279 285 284 288 291 293 279 280 284 282